www.pogodaiklimat.ru

Погода и климат >> Архив погоды >> Узбекистан >> Джизак


ПОГОДА в Джизаке

  • Прогноз погоды в Джизаке
  • Монитор погоды в Джизаке

АРХИВ ПОГОДЫ в Джизаке

Время (UTC), дата Ветер
(напр.,м/с)
 
Видим.   Явления Облачность Т
(С)
Тd
(С)
f
(%)
Тe
(С)
Тes
(С)
Комфортность P
(гПа)
Po
(гПа)
Тmin
(С)
Tmax
(С)
R
(мм)
R24
(мм)
S
(см)
09 9.09 СЗ 1 10 км слаб. ливневой дождь 10/10 600 м
[Cb cap]
+13.1 +11.0 87 +13 +13 1017.8 977.1
12 9.09 ЮЗ 4 10 км слаб. ливневой дождь 10/10 600 м
[Cb cap]
+13.7 +10.0 78 +12 +12 1018.5 977.8
15 9.09 Ю 1 н/о в посл. час ливневой дождь 8/4 600 м
[Cb cap Ac As]
+13.9 +10.6 80 +14 +14 1018.9 978.2 +13.9 15
18 9.09 штиль 0 н/о {ливн. осадки} 6/0 600 м
[Ac trans]
+12.6 +9.9 84 +12 +12 1019.0 978.2 +13.9 15
21 9.09 штиль 0 н/о ясно +10.0 +8.4 90 +9 +9 1019.4 978.2
00 10.09 штиль 0 н/о ясно +9.4 +7.3 87 +9 +9 1020.4 979.1
03 10.09 СЗ 1 50 км ясно +14.0 +9.8 76 +14 +17 1021.5 980.8
06 10.09 С 3 50 км ясно +19.5 +10.9 58 +21 +31 комфорт 1021.3 981.3 +9.4
09 10.09 С 2 50 км ясно +22.7 +8.4 40 +24 +36 комфорт 1020.0 980.5
12 10.09 С 3 50 км ясно +22.8 +7.0 36 +24 +26 комфорт 1019.2 979.7
15 10.09 СВ 1 н/о ясно +17.2 +7.4 52 +18 +18 1019.9 979.6 +23.7
18 10.09 В 2 н/о ясно +14.6 +8.0 65 +14 +14 1020.2 979.6 +23.7
21 10.09 СЗ 1 н/о ясно +11.2 +6.2 71 +11 +11 1020.4 979.2
00 11.09 СЗ 1 н/о ясно +9.2 +5.9 80 +9 +9 1020.8 979.3
03 11.09 СЗ 1 50 км ясно +12.8 +5.8 62 +13 +16 1021.7 980.7
06 11.09 С 1 50 км ясно +20.1 +8.2 46 +22 +37 комфорт 1020.9 981.0 +8.6
09 11.09 СВ 4 50 км ясно +23.8 +7.7 36 +24 +32 комфорт 1019.5 980.1
12 11.09 СВ 2 50 км ясно +24.2 +8.1 36 +25 +27 комфорт 1019.1 979.7
15 11.09 штиль 0 н/о ясно +18.0 +9.4 57 +18 +18 1020.0 979.8 +25.0
18 11.09 штиль 0 н/о ясно +13.7 +10.3 80 +13 +13 1020.1 979.4 +25.0
21 11.09 штиль 0 н/о ясно +11.3 +8.9 85 +11 +11 1019.6 978.6
00 12.09 штиль 0 н/о ясно +9.6 +7.7 88 +9 +9 1019.4 978.2
03 12.09 штиль 0 50 км ясно +13.4 +6.5 63 +13 +16 1019.2 978.5
06 12.09 С 2 50 км ясно +20.5 +8.0 44 +22 +34 комфорт 1018.1 978.4 +9.2
09 12.09 С 3 50 км ясно +25.3 +8.9 35 +26 +36 жарко 1016.5 977.5
12 12.09 С 2 50 км ясно +25.3 +8.9 35 +26 +28 жарко 1016.5 977.5
15 12.09 С 1 н/о ясно +18.8 +9.0 53 +20 +20 1016.3 976.4 +26.2
18 12.09 штиль 0 н/о ясно +15.1 +9.7 70 +15 +15 1016.8 976.4 +26.2
21 12.09 ЮЗ 1 н/о ясно +13.3 +9.2 76 +14 +14 1015.5 975.1
00 13.09 штиль 0 н/о ясно +11.6 +8.5 81 +11 +11 1016.0 975.1
03 13.09 штиль 0 50 км ясно +14.2 +9.3 72 +14 +17 1016.2 975.8
06 13.09 ЮВ 3 50 км ясно +24.7 +9.3 38 +25 +35 комфорт 1015.2 976.1 +11.2
09 13.09 В 1 50 км ясно +27.7 +9.3 32 +28 +42 жарко 1014.2 975.5
12 13.09 СВ 1 50 км ясно +27.8 +10.0 33 +28 +31 жарко 1013.3 974.7
15 13.09 штиль 0 н/о ясно +21.4 +12.2 56 +24 +24 комфорт 1014.3 974.9 +28.8
18 13.09 штиль 0 н/о ясно +17.1 +12.4 74 +17 +17 1014.6 974.6 +28.8
21 13.09 штиль 0 н/о ясно +15.0 +11.1 77 +15 +15 1014.2 973.8
00 14.09 штиль 0 н/о 3/0
[Ac lent]
+14.2 +11.4 83 +14 +14 1014.2 973.8
03 14.09 штиль 0 50 км 9/6 600 м
[Cb cap Ac As Ci fib]
+15.8 +11.8 77 +16 +16 1014.5 974.3
06 14.09 С 1 50 км 5/0
[Ac lent Ci fib]
+25.0 +12.5 46 +27 +37 жарко 1013.7 974.8 +14.0
09 14.09 В 1 50 км 5/0
[Ac As Ci fib]
+27.6 +10.4 34 +28 +38 жарко 1012.7 974.1
12 14.09 СВ 2 50 км 9/9 600 м
[]
+26.5 +9.5 34 +27 +27 жарко 1012.2 973.5
15 14.09 С 1 н/о 8/4 600 м
[Cb cap Ac As]
+23.5 +10.3 43 +25 +25 комфорт 1013.6 974.5 +28.5
18 14.09 Ю 1 н/о 8/4 600 м
[Cb cap Ac lent Ci fib]
+20.6 +12.3 59 +24 +24 комфорт 1014.0 974.5 +28.5
21 14.09 ЮЗ 2 н/о 5/0
[Ac lent Ci fib]
+19.3 +11.1 59 +21 +21 комфорт 1013.8 974.1
00 15.09 ЮЗ 2 н/о 5/0
[Ac lent Ci fib]
+19.3 +9.8 54 +21 +21 комфорт 1014.2 974.5
03 15.09 ЮЗ 3 50 км 8/4 600 м
[Cb cap Ac As]
+20.9 +9.3 47 +23 +23 комфорт 1015.3 975.7
06 15.09 З 5 50 км 1/1 600 м
[Cb cap]
+26.2 +9.8 36 +27 +32 жарко 1015.4 976.6 +17.5
09 15.09 З 6 50 км 1/1 1000 м
[Cu med, cong]
+27.8 +8.6 30 +28 +32 жарко 1015.0 976.3
12 15.09 С 5 50 км 1/1 1000 м
[Cu med, cong]
+25.5 +7.1 31 +25 +26 комфорт 1016.1 977.1
15 15.09 штиль 0 н/о 4/0
[Ac As Ci fib]
+18.7 +7.7 49 +19 +19 1018.5 978.5 +27.9
18 15.09 штиль 0 н/о ясно +14.8 +7.6 62 +15 +15 1018.8 978.3 +27.9
21 15.09 штиль 0 н/о ясно +12.3 +7.1 71 +12 +12 1019.3 978.3
00 16.09 штиль 0 н/о ясно +11.0 +5.6 69 +11 +11 1019.4 978.3
03 16.09 Ю 1 50 км ясно +17.4 +7.0 50 +18 +21 1019.0 978.9

 

Местоположение метеостанции Джизак (Джизакская область, Узбекистан): широта 40.12 долгота 67.83 высота над уровнем моря 345 м.

В архиве по умолчанию представлена погода в Джизаке за последнюю неделю. Архивные данные за месяц целиком и за предыдущие месяцы, начиная с января 2011 года, Вы можете получить, выбрав интересующий диапазон дат из раскрывающегося списка и нажав кнопку "Ввод!".


*Определитесь, кто Вы:
робот инопланетянин человек

Внимание! Время в таблицах - всемирное. Для получения местного времени необходимо прибавить поправку, которая равна 5 ч.

Смотрите также архив погоды в соседних городах и на ближайших метеорологических станциях:

Погода в Галляарале (Джизакская область, Узбекистан) (36 км)
Погода в Богарном (Джизакская область, Узбекистан) (39 км)
Погода в Дустлике (Джизакская область, Узбекистан) (61 км)
Погода в Янгикишлаке (Джизакская область, Узбекистан) (63 км)
Погода в Пенджикенте (Таджикистан) (73 км)
Погода в Самарканд аэропорту (Самаркандская область, Узбекистан) (79 км)
Погода в Бахмале (Джизакская область, Узбекистан) (80 км)
Погода в Западном Арнасае (Джизакская область, Узбекистан) (80 км)
Погода в Жетысае (Южно-Казахстанская область, Казахстан) (85 км)
Погода в Янгиере (Сырдарьинская область, Узбекистан) (86 км)

Пояснения к столбцам:

Ветер - указаны скорость ветра в м/с - средняя за 10 мин, порывы в срок и между сроками (в фигурных скобках) и направление, откуда дует ветер: С - северный, СВ - северо-восточный, В - восточный, ЮВ - юго-восточный, Ю - южный, ЮЗ - юго-западный, З - западный, СЗ - северо-западный.
Видимость - горизонтальная дальность видимости в метрах или километрах. При видимости от 1 до 10 км при отсутствии осадков обычно наблюдается дымка, при ухудшении видимости до 1 км и менее - туман. В сухую погоду видимость может ухудшаться дымом, пылью или мглою.
Явления - указаны атмосферные явления, наблюдавшиеся в срок или в последний час перед сроком; фигурными скобками обозначены явления, наблюдавшиеся между сроками (за 1-3 часа до срока); квадратными скобками обозначены град или гололедные отложения с указанием их диаметра в мм.
Облачность - указаны через наклонную черту общая и нижняя облачность в баллах и высота нижней границы облаков в метрах; квадратными скобками обозначены формы облаков: Ci - перистые, Cs - перисто-слоистые, Cc - перисто-кучевые, Ac - высококучевые, As - высокослоистые, Sc - слоисто-кучевые, Ns - слоисто-дождевые, Cu - кучевые, Cb - кучево-дождевые. Подробнее классификацию облаков см. в Атласе облаков (PDF).
T - Температура воздуха - температура, измеренная на высоте 2 м над землей.
Td - Температура точки росы - температура, при понижении до которой содержащийся в воздухе водяной пар достигнет насыщения.
f - Относительная влажность воздуха - влажноcть воздуха, измеренная на высоте 2 м над землей.
Te - Эффективная температура - температура, которую ощущает одетый по сезону человек в тени. Характеристика душности погоды. При расчете учитывается влияние влажности воздуха и скорости ветра на теплоощущения человека.
Tes - Эффективная температура на солнце - температура, которую ощущает человек, с поправкой на солнечный нагрев. Характеристика знойности погоды. Зависит от высоты солнца над горизонтом, облачности и скорости ветра. Ночью, в пасмурную погоду, а также при ветре 12 м/с и более поправка равна нулю.
P - Атмосферное давление - приведенное к уровню моря атмосферное давление.
Po - Атмосферное давление - измеренное на уровне метеостанции атмосферное давление.
Tmin - Минимальная температура - минимум температуры воздуха на высоте 2 м над землей.
Tmax - Максимальная температура - максимум температуры воздуха на высоте 2 м над землей.
R - Количество осадков - Количество выпавших осадков за период времени, мм. При наведении курсора мыши на число - период времени, за который выпало указанное количество осадков.
R24 - Количество осадков - Количество выпавших осадков за 24 часа, мм.
S - Снежный покров - Высота снежного покрова, см. При наведении курсора мыши на число - состояние снежного покрова и степень покрытия местности в баллах.